Theta_e
320 321 322 322 323 322 322 322 323 323 323 323 322 321 322 322 322 321 321 322 320 320 319 319 318 317 317 316 316 316 316 317 318 320 322 324 326 328 330 329 328 327 328 328 327 327 329 335 338 337 339 342 341 345 347 350 351 354 354 346 344 346 348 352 354 354 355 356 356 358 358 358 359 360 360 360 360 359 358 358 355 354 356 356 354 354 352 353
320 321 322 322 322 322 322 322 322 322 323 322 322 321 321 321 321 322 321 322 321 320 320 319 319 318 317 316 316 316 316 316 317 320 321 323 327 329 330 329 327 327 328 328 329 331 334 338 336 335 340 341 340 343 346 349 350 351 351 346 346 349 351 354 355 355 356 357 358 359 358 359 359 359 359 361 360 358 358 357 355 354 355 356 354 353 352 352
320 320 322 322 322 322 322 322 322 322 322 322 322 321 321 321 321 321 321 322 321 320 320 319 319 318 317 316 316 316 317 317 320 323 323 324 327 328 329 328 327 327 328 329 330 332 331 333 335 335 339 339 339 343 346 349 351 350 349 347 347 349 351 354 357 357 358 359 359 359 358 359 360 359 360 361 359 358 358 355 353 352 355 356 355 354 353 353
321 321 322 322 322 322 322 322 321 321 322 322 322 321 320 321 321 321 321 321 321 320 320 320 319 319 318 317 316 316 317 320 324 325 324 325 328 330 328 327 327 327 328 328 329 329 327 330 333 335 337 339 341 343 345 348 350 348 348 346 348 349 350 352 355 356 357 358 358 358 358 360 359 359 361 360 356 356 357 356 353 352 354 355 356 356 355 356
322 322 322 322 322 322 322 322 321 320 321 322 321 321 321 321 321 321 321 322 321 320 320 320 319 319 319 317 317 316 317 323 327 326 326 325 327 329 327 326 326 327 328 328 327 326 328 331 334 335 338 340 341 342 344 347 349 348 347 348 349 349 350 352 354 355 356 358 358 360 360 360 359 358 359 357 355 353 354 356 355 353 353 355 356 356 357 357
322 322 322 322 322 322 322 321 320 320 320 321 321 321 321 321 321 321 321 321 321 320 320 320 319 319 319 318 316 316 318 325 326 325 327 327 327 327 326 325 325 326 326 328 328 328 329 331 334 336 339 339 337 338 342 347 349 349 349 350 350 350 351 353 354 354 356 357 359 361 360 358 358 359 358 357 354 352 353 354 354 354 353 354 356 356 357 357
323 322 322 322 322 322 322 321 320 319 320 321 322 321 321 322 322 321 321 321 321 320 320 320 319 319 319 318 317 317 319 323 324 323 326 326 326 326 324 324 324 324 326 328 330 329 330 332 335 336 338 337 335 338 343 347 349 348 350 350 350 351 352 353 354 355 356 356 357 358 357 357 358 358 357 356 354 353 353 353 354 354 354 354 356 357 357 358
323 323 322 322 322 322 322 320 319 319 319 322 322 321 321 322 322 321 321 322 321 320 320 319 319 319 319 318 318 319 320 321 323 323 324 325 326 325 323 323 323 323 325 329 330 329 331 332 335 336 335 335 334 338 343 347 349 349 349 350 352 352 352 354 354 355 355 356 356 356 356 356 356 356 355 355 353 353 354 354 354 355 354 354 355 357 358 358
321 322 322 322 322 322 321 320 319 318 319 321 322 321 321 322 322 322 322 321 320 320 320 318 318 319 319 318 319 320 322 321 320 322 324 327 327 325 324 323 323 323 326 328 327 328 329 332 335 335 335 335 334 339 345 346 347 348 351 351 352 353 353 354 354 355 355 355 356 355 355 356 355 355 356 355 354 354 355 354 354 354 354 354 355 356 358 358
317 318 319 320 320 321 320 319 318 317 319 321 322 321 321 321 320 321 321 321 320 319 319 318 319 319 319 319 319 320 323 321 319 323 326 327 329 327 324 324 323 323 325 326 325 326 329 332 334 333 333 333 335 342 345 346 348 350 352 352 353 354 353 353 353 354 355 356 358 356 353 355 355 354 355 355 355 356 357 355 354 355 354 353 354 356 357 357
313 314 315 316 316 318 317 317 317 317 319 322 322 321 321 322 322 321 319 319 319 318 318 318 318 319 318 319 320 321 322 321 323 326 327 329 329 328 326 325 323 322 325 326 325 326 327 330 332 332 333 332 335 344 346 347 350 351 352 352 353 354 354 354 353 353 356 356 356 357 355 355 354 352 354 354 355 357 356 357 355 356 356 355 355 356 357 357
314 313 313 313 313 314 315 316 317 317 320 322 322 322 322 324 326 324 321 318 318 318 318 319 319 319 319 319 321 321 319 323 328 327 328 330 329 328 327 325 323 322 325 327 325 325 327 328 329 332 333 331 337 345 348 349 352 351 351 351 351 353 353 352 354 354 356 355 356 358 352 353 354 350 352 353 354 355 355 356 356 356 356 355 354 356 357 357
316 314 313 312 312 313 313 314 315 317 320 322 322 321 322 325 326 326 324 320 318 319 318 319 319 318 319 321 322 319 317 324 329 327 328 331 329 329 329 328 327 323 323 326 326 326 327 329 329 331 332 332 339 343 346 351 352 350 349 348 349 351 350 353 355 355 357 355 357 357 345 344 350 349 351 353 353 353 353 355 355 356 355 355 355 355 356 357
319 318 315 313 312 313 312 314 315 317 320 322 322 322 324 325 325 326 326 322 319 319 319 318 319 319 320 321 320 318 317 322 328 328 327 330 331 329 328 329 330 326 323 324 323 325 329 330 330 332 331 332 340 342 346 350 348 348 347 347 346 342 343 352 353 354 357 354 356 355 341 340 348 349 350 353 353 352 353 354 354 356 355 355 355 354 355 355
319 319 318 315 313 313 312 313 315 316 321 322 322 323 324 324 325 327 326 323 320 320 319 319 318 320 323 322 320 319 317 319 324 326 327 330 330 330 329 328 329 330 328 326 324 326 329 330 331 332 332 334 341 344 346 346 345 347 339 336 340 337 340 351 353 354 355 353 355 352 342 343 350 350 350 351 351 353 352 352 354 356 356 356 355 354 354 354
319 319 320 317 314 313 313 314 314 317 321 323 323 322 323 324 324 326 327 323 321 322 321 320 320 321 325 324 322 320 319 320 322 325 327 329 330 329 329 327 328 329 329 329 329 330 330 330 331 331 332 336 341 342 342 340 341 346 337 329 333 334 338 348 351 353 354 352 354 353 346 346 351 352 351 352 351 352 352 353 353 355 356 357 356 355 355 357
318 318 319 319 316 313 313 314 314 317 322 323 322 322 322 322 323 326 326 323 323 324 323 324 323 323 325 323 322 322 323 323 322 324 326 328 329 328 328 327 329 328 327 328 330 331 330 331 332 330 332 335 338 339 334 327 328 334 335 330 332 334 336 341 346 351 352 350 351 352 349 347 348 351 351 353 352 351 351 352 354 355 355 357 357 355 357 357
317 317 319 319 318 314 313 313 314 317 322 323 323 322 322 323 322 324 325 324 324 324 324 325 325 324 323 322 322 322 323 323 322 324 326 328 328 326 327 327 327 328 328 329 331 331 331 333 333 332 334 333 336 337 329 324 324 326 328 326 329 334 335 338 342 349 350 348 348 348 349 348 347 349 350 351 353 352 351 351 352 354 354 355 357 356 356 357
317 317 317 319 319 315 313 313 313 317 322 323 322 322 322 323 323 324 324 324 325 326 327 327 325 323 322 322 322 322 323 323 323 324 326 327 326 325 326 326 327 328 329 331 331 332 333 333 333 332 333 334 337 337 331 330 330 329 328 327 327 329 333 340 344 348 348 347 348 348 347 348 347 347 349 350 352 353 352 352 352 353 354 355 356 355 356 356
317 317 316 318 319 317 314 313 314 318 323 323 322 322 325 326 326 327 325 324 325 326 326 326 326 324 324 323 324 323 324 323 323 325 326 326 325 326 326 325 327 328 330 332 332 331 332 332 333 332 334 335 335 335 333 333 332 331 330 329 329 329 332 340 345 345 348 347 345 347 346 346 348 347 348 350 353 353 353 353 353 353 353 354 354 354 355 355
318 317 317 317 319 318 315 313 314 319 323 323 321 323 327 326 325 326 325 325 325 324 323 324 324 324 324 324 325 324 324 325 325 325 325 324 326 326 325 326 327 328 329 333 331 331 332 331 333 334 334 334 333 332 332 331 331 332 330 328 329 330 334 341 345 346 347 346 344 346 346 346 349 348 350 353 353 353 353 353 353 354 353 354 354 354 354 355
318 318 317 316 318 318 315 313 315 320 323 323 322 324 325 323 323 324 323 324 324 323 322 322 322 323 322 322 323 322 324 326 326 325 325 325 325 325 326 326 327 330 330 331 331 332 331 332 333 335 333 333 332 332 331 331 332 331 331 328 327 332 337 339 344 347 345 344 343 346 344 346 349 350 352 354 351 353 353 354 355 355 354 353 354 354 353 355
317 317 317 317 317 318 316 314 316 321 323 322 323 325 324 322 323 322 322 324 324 323 322 322 323 323 322 323 322 322 325 327 325 325 325 324 325 325 326 327 327 330 330 329 332 331 328 332 335 335 333 332 332 331 331 331 331 331 330 326 327 333 334 332 340 348 346 343 345 345 343 344 350 351 354 355 354 356 355 354 355 355 356 355 354 354 354 356
317 317 317 317 317 318 316 314 318 322 322 322 323 324 323 323 323 322 322 324 324 324 323 322 323 323 324 324 323 324 325 326 326 326 324 324 326 325 326 327 328 329 329 329 331 331 330 331 333 332 331 332 332 332 333 331 329 331 332 327 328 334 333 333 342 348 346 344 344 343 339 340 347 350 353 355 355 356 356 356 357 355 356 356 355 355 355 356
317 316 316 317 317 318 316 316 321 321 320 321 322 323 323 323 323 321 322 325 325 326 325 322 323 323 323 323 324 326 326 327 327 326 324 324 325 325 326 327 327 329 329 330 330 331 333 332 331 331 332 332 332 333 332 329 327 327 331 332 331 334 338 341 346 342 338 337 343 341 332 332 343 346 348 353 353 355 356 356 357 357 357 356 356 355 355 357
316 315 316 316 317 317 317 321 322 318 319 323 323 323 323 323 322 320 322 326 324 324 324 323 323 323 323 324 325 326 325 326 326 326 324 325 325 325 326 326 327 328 329 329 329 330 331 331 331 331 331 333 332 332 332 331 326 323 329 334 334 337 340 341 341 335 330 331 341 342 331 329 337 343 348 351 350 354 356 354 355 356 357 356 355 355 355 356
315 315 316 316 317 317 318 322 319 315 321 325 323 323 323 322 321 320 324 323 320 322 324 322 323 323 323 326 327 326 322 323 326 325 324 325 325 325 325 326 326 326 328 328 326 328 331 329 329 330 331 332 332 331 332 331 326 325 331 335 334 338 340 340 339 333 330 334 339 341 336 329 330 338 346 349 349 351 353 353 353 354 356 355 354 355 356 356
315 315 316 316 317 317 317 318 316 317 322 324 323 323 323 322 320 322 325 320 319 325 324 321 322 323 324 325 326 326 322 324 326 325 324 324 324 325 324 326 327 326 328 327 324 327 330 330 329 329 329 330 331 329 329 330 328 329 334 336 337 339 341 341 337 333 334 333 330 335 337 329 327 336 346 348 346 348 350 351 352 353 355 354 354 353 355 356
314 315 316 316 317 318 317 316 317 319 322 323 323 323 322 321 321 325 325 320 321 324 323 322 322 323 325 325 326 326 324 325 324 325 324 324 325 325 324 326 327 326 326 326 325 327 328 328 327 327 328 330 330 329 329 328 329 334 337 337 339 340 341 340 337 334 333 330 326 329 332 328 326 332 340 344 342 344 347 348 349 353 353 354 354 353 355 356
315 315 316 317 318 318 317 317 318 321 323 323 323 322 321 322 324 324 321 320 323 323 322 322 323 324 325 326 326 327 325 325 325 325 326 325 325 325 325 326 327 325 326 325 326 327 326 326 326 326 328 329 328 328 328 328 332 336 338 339 339 339 340 340 337 334 329 327 327 328 330 329 327 329 335 340 340 342 345 345 347 351 353 354 353 353 353 355
315 316 317 317 318 319 320 320 320 320 322 322 322 322 323 326 327 322 320 323 324 323 322 322 322 324 324 325 325 325 325 325 326 325 325 325 325 326 325 324 325 324 325 324 325 327 326 325 327 328 327 327 327 329 330 332 335 336 338 337 332 330 332 331 333 331 326 324 326 330 332 330 326 329 336 340 342 341 343 346 346 345 349 354 353 353 354 354
316 316 316 319 322 324 325 324 321 319 321 322 322 324 325 325 324 322 323 325 324 323 323 322 322 323 325 325 324 325 325 325 325 325 325 325 325 325 324 324 325 321 318 321 323 324 325 326 328 328 327 327 326 328 331 333 334 336 334 331 324 323 324 324 325 327 323 324 327 331 333 330 327 332 338 342 343 341 344 347 346 342 345 352 353 353 354 355
316 317 320 324 326 326 326 324 321 320 321 322 323 327 327 325 323 324 326 326 325 326 324 322 322 323 324 324 324 325 324 324 325 325 326 325 326 326 324 325 325 322 319 320 320 319 321 324 327 327 327 328 327 326 327 329 332 334 330 326 322 321 321 321 322 322 322 324 328 333 333 326 328 336 341 343 342 342 344 347 348 346 347 351 353 353 353 355
316 320 325 326 325 323 323 323 322 322 322 322 325 328 326 323 324 327 328 327 328 328 325 323 322 323 323 323 324 324 324 323 324 324 325 325 324 324 325 324 324 324 324 321 319 318 316 319 324 325 326 327 327 328 329 329 330 332 334 330 324 321 321 320 320 320 322 324 326 331 330 324 326 338 345 345 345 343 344 347 348 349 349 351 352 352 353 354
319 325 326 324 324 324 324 323 322 322 322 324 327 327 324 322 324 327 328 329 328 328 326 324 323 322 321 323 324 325 324 322 324 324 324 324 323 324 325 324 323 325 323 319 319 320 315 317 324 326 328 328 328 329 331 330 329 331 335 330 325 325 326 321 321 322 322 321 325 327 328 329 336 343 346 345 344 343 345 348 348 349 350 349 350 351 352 354
323 326 325 324 325 326 326 325 325 323 323 326 327 324 324 325 326 328 330 330 329 329 326 322 322 321 319 321 324 325 324 324 323 323 323 324 324 324 325 325 325 324 324 321 320 320 315 317 325 327 326 328 328 328 331 328 327 330 329 326 327 332 330 323 321 325 322 320 324 325 325 330 336 341 345 345 343 342 344 346 347 350 351 349 351 351 351 354
325 327 326 326 327 327 328 328 328 327 326 328 325 324 327 329 328 329 331 331 329 329 325 320 321 321 317 319 321 323 323 323 323 322 321 322 323 323 325 325 324 325 325 324 322 323 318 317 324 326 325 327 328 328 331 330 329 329 325 327 332 331 331 325 321 322 321 319 323 323 322 324 327 335 345 345 342 342 341 342 344 348 350 349 351 353 353 355
326 328 327 328 328 329 329 329 329 329 329 329 326 327 330 330 330 329 330 331 329 329 326 321 321 322 320 318 319 323 323 321 322 322 322 321 322 324 325 325 325 325 325 325 324 325 321 317 322 327 325 327 328 327 328 329 331 331 328 331 330 323 323 324 320 320 319 319 321 322 321 322 323 333 343 344 342 341 340 338 338 344 348 348 350 353 354 355
326 329 330 329 328 329 330 330 329 330 331 329 328 330 331 330 332 332 331 332 330 329 327 323 322 323 322 320 321 324 323 321 322 322 321 322 322 324 326 325 325 325 325 326 325 326 324 318 318 325 328 326 327 326 324 325 329 329 330 332 330 325 323 324 322 320 319 319 320 320 321 322 325 336 342 343 343 341 339 338 337 342 345 347 349 350 353 355
325 331 332 328 327 329 331 329 330 331 331 330 331 332 331 331 333 333 331 331 331 330 328 326 324 322 323 323 323 323 323 323 325 323 323 323 322 324 327 326 325 326 326 326 326 325 326 322 318 323 327 324 324 326 326 327 328 327 327 326 326 327 326 325 324 323 321 320 320 320 320 322 329 338 341 343 343 340 340 339 338 342 345 346 350 351 353 355
326 332 332 329 328 330 330 331 332 333 330 331 332 332 331 332 334 334 332 331 332 331 329 328 327 325 324 323 323 324 325 324 325 325 324 325 323 323 325 326 326 326 326 325 326 325 325 323 320 319 321 321 323 329 329 329 329 329 328 327 327 326 324 321 321 323 322 321 320 320 318 324 334 340 341 343 341 340 342 338 339 343 345 346 350 352 354 354
327 331 331 329 330 330 330 332 332 333 331 331 333 332 333 333 333 333 333 331 331 331 330 330 330 329 327 325 325 326 325 325 324 324 325 325 325 325 326 326 326 326 326 325 326 326 326 326 321 319 321 324 327 329 327 327 328 331 329 330 331 328 324 320 318 321 321 320 322 320 319 327 340 342 342 343 342 343 341 338 339 342 343 346 351 352 354 355
330 331 330 329 329 329 331 331 329 331 332 333 334 333 333 333 333 333 334 333 332 333 331 330 330 331 330 328 328 328 326 325 325 326 326 325 327 327 326 325 325 326 326 326 326 326 327 325 320 319 324 327 327 327 328 328 328 327 328 331 330 329 328 325 324 324 321 319 321 319 319 330 342 343 345 346 343 344 341 340 341 343 345 349 352 352 353 355
328 330 330 329 329 329 330 331 330 331 332 334 335 335 334 334 332 333 334 333 334 333 332 333 332 332 332 332 332 332 328 325 325 326 326 326 326 325 325 325 325 326 327 326 327 326 323 323 321 318 319 321 321 323 324 324 325 326 328 330 329 330 330 328 327 327 322 321 322 318 319 331 341 343 345 346 345 344 343 341 343 345 347 349 351 352 355 355
327 330 330 331 331 330 332 333 332 333 333 334 335 334 334 334 333 333 334 334 334 335 334 334 334 333 333 333 332 333 330 327 327 328 326 326 326 325 324 325 324 326 328 327 328 326 323 326 324 318 316 318 317 319 320 322 325 326 328 330 330 330 329 328 325 322 320 324 324 319 322 333 341 343 342 344 343 344 343 341 343 348 350 350 351 352 354 356
330 332 331 331 332 332 333 334 334 334 335 335 336 335 334 335 334 333 333 333 334 335 335 335 335 334 334 333 333 333 332 330 329 330 329 329 330 328 325 324 324 326 329 327 328 327 326 328 327 323 320 320 320 323 326 328 325 323 326 328 329 330 330 328 323 319 321 324 322 325 330 333 337 341 343 342 342 343 345 343 344 350 350 350 352 353 354 356
330 332 333 333 332 332 333 334 335 335 335 336 337 335 334 334 334 334 334 334 334 335 335 335 334 334 334 334 333 332 332 334 332 333 333 331 332 330 325 323 324 327 329 327 327 328 326 324 325 326 325 325 328 330 331 329 326 325 326 326 328 330 331 328 323 324 326 321 319 332 339 332 334 342 343 342 343 343 344 345 347 351 350 349 352 352 353 354
329 332 331 332 333 334 334 334 335 335 335 336 337 334 335 335 335 335 334 334 335 335 336 336 334 334 334 334 335 334 333 334 333 334 335 333 333 331 325 323 323 327 329 327 327 329 326 322 325 326 324 327 333 333 331 330 329 329 330 329 328 330 330 327 324 329 332 323 324 338 340 332 337 342 341 343 344 344 346 349 349 349 349 349 350 351 352 352
328 329 329 329 332 334 334 334 334 334 333 336 337 334 334 335 335 334 334 335 337 336 336 337 335 333 334 334 335 336 335 333 332 336 337 335 335 333 328 325 323 327 331 327 327 331 326 324 328 328 325 329 335 335 334 333 330 330 332 332 331 330 330 330 330 333 335 330 332 339 337 337 337 337 341 344 343 347 350 349 349 349 350 351 351 351 350 350
325 327 327 329 332 332 333 333 334 334 333 335 337 335 334 335 334 334 334 335 338 337 336 336 335 334 334 335 335 335 336 334 334 336 337 335 336 335 331 328 325 329 331 327 327 331 327 327 333 331 325 328 335 335 334 333 331 331 332 334 333 331 331 332 333 335 334 332 335 336 335 343 346 342 347 349 346 349 351 349 349 350 350 350 351 349 349 350
321 323 323 328 332 332 333 334 333 333 333 334 335 334 333 334 333 334 334 333 335 335 334 333 335 335 336 336 337 335 335 335 335 336 336 336 336 335 334 333 329 329 329 327 328 329 328 331 337 332 323 324 334 336 332 334 333 330 332 335 335 332 332 334 334 335 333 332 334 331 332 343 351 349 349 349 349 351 350 349 351 351 352 352 348 347 349 351
319 321 321 326 331 331 331 332 332 333 334 333 332 332 332 333 333 334 335 334 333 333 333 334 334 335 337 338 337 334 334 335 335 336 335 335 336 335 334 335 334 332 329 328 329 329 329 331 334 330 321 322 332 334 333 332 327 324 330 337 338 338 338 338 338 339 340 337 335 332 336 346 351 347 344 346 348 350 350 350 352 353 353 351 347 348 352 353
Wind_Speed
16 15 15 15 16 17 17 18 18 18 18 17 17 16 15 14 14 13 12 12 11 10 10 10 11 11 11 11 11 10 10 10 10 11 10 6 5 6 6 5 5 4 2 1 2 2 2 5 6 4 5 4 3 2 2 3 5 6 3 5 6 7 8 7 7 7 9 10 9 9 7 6 6 4 3 4 4 5 5 4 5 6 7 9 12 15 15 15
16 16 16 16 16 17 18 18 18 19 18 17 17 16 16 15 14 13 12 12 11 10 10 10 11 11 11 11 10 11 9 9 10 11 11 8 5 5 5 5 4 3 1 1 2 2 4 5 6 5 5 4 1 1 2 1 3 4 4 6 6 7 8 7 8 10 10 11 11 9 6 4 6 6 4 4 5 6 5 6 7 9 10 11 13 14 14 14
16 16 16 16 17 17 18 19 19 19 19 18 17 16 16 15 14 13 12 12 11 10 9 9 10 10 11 10 10 10 8 9 9 7 8 8 7 6 5 5 3 2 2 1 3 4 3 4 5 4 5 3 0 1 1 1 2 5 5 5 7 6 8 8 8 9 11 13 12 10 6 4 5 5 3 3 6 5 3 6 8 10 11 12 13 13 14 13
16 16 16 17 17 18 18 19 19 20 20 19 17 16 15 16 15 14 12 12 11 9 9 9 10 10 10 10 9 8 7 8 4 4 6 6 8 8 6 4 4 3 3 3 4 4 2 2 4 4 5 2 2 1 2 2 2 6 6 6 7 5 7 8 8 10 11 11 9 9 7 5 5 4 2 4 5 4 3 4 5 9 12 13 13 13 13 13
17 16 16 17 17 18 19 19 20 20 21 20 18 16 15 15 15 14 12 12 11 9 8 8 9 10 10 9 8 5 5 4 3 3 4 4 7 8 6 5 4 4 4 4 3 2 1 3 5 4 5 2 2 0 4 4 2 4 7 8 8 6 8 8 8 9 9 8 8 8 5 5 7 4 4 5 2 3 4 4 5 8 12 14 14 14 13 13
17 17 17 17 17 18 19 20 20 21 21 20 18 16 15 15 15 15 12 12 10 8 7 8 8 9 9 9 7 4 5 2 2 1 2 3 6 7 6 6 6 5 4 4 3 2 3 4 5 3 5 3 5 4 5 5 2 3 7 8 9 9 9 8 9 8 6 6 6 5 4 6 6 4 5 6 2 4 3 4 5 7 12 13 13 13 13 13
17 17 17 17 18 18 19 20 21 21 21 21 19 16 15 14 14 14 13 11 9 7 7 7 8 8 8 8 7 5 6 4 3 1 1 2 5 6 7 6 7 5 4 5 4 3 3 4 3 7 6 3 6 6 4 4 1 4 7 8 9 10 10 9 8 7 6 5 5 3 3 5 4 2 3 5 4 3 2 2 5 7 11 13 13 13 12 12
18 18 18 18 18 19 20 21 21 21 21 20 19 17 15 14 13 13 12 10 8 7 7 7 7 7 7 6 5 5 6 5 2 0 1 2 3 4 6 6 7 5 5 6 5 3 3 3 4 8 6 6 7 4 3 4 2 5 7 8 8 10 10 9 8 7 6 5 4 4 3 3 2 0 1 3 3 3 0 1 6 8 11 13 12 12 11 10
18 18 18 18 19 19 20 21 21 21 21 20 18 16 15 13 12 12 10 8 7 7 7 7 6 6 6 4 4 5 6 8 6 2 1 3 4 4 5 4 5 5 6 7 6 4 3 3 5 8 7 6 7 4 2 2 3 6 6 8 8 9 9 8 8 6 5 4 3 4 3 2 2 2 2 2 3 3 3 4 7 9 11 12 12 12 11 10
19 19 19 19 19 19 20 21 21 21 20 19 17 15 14 11 10 10 8 7 6 7 7 6 6 5 5 3 4 5 5 9 8 2 4 4 4 5 5 2 3 4 6 6 5 5 3 4 5 7 6 4 6 4 1 3 5 7 7 9 8 8 8 6 7 6 4 4 2 2 2 2 2 3 1 5 4 4 5 6 8 9 11 12 12 12 11 10
19 19 19 19 19 20 20 21 21 20 19 18 15 15 12 8 8 8 7 6 7 7 6 6 5 5 4 3 6 5 3 8 7 4 5 4 5 6 5 3 2 3 5 6 5 5 5 4 5 7 5 5 4 2 3 3 6 8 8 9 7 6 7 6 6 6 3 3 1 2 1 2 4 2 3 5 4 5 6 7 8 9 9 11 11 11 10 10
19 19 19 19 19 20 20 20 20 19 18 16 14 13 9 6 7 8 7 6 6 6 5 5 4 4 4 5 9 8 5 8 7 4 5 5 4 5 6 4 3 3 5 5 4 4 6 5 6 7 6 7 4 2 3 4 6 6 5 4 7 6 5 6 5 5 2 2 2 2 2 4 4 2 5 5 5 5 5 5 7 7 8 9 9 9 10 10
19 19 19 19 19 19 19 19 19 18 17 14 13 12 7 6 7 7 7 6 6 6 5 4 4 4 4 5 8 10 9 10 8 4 5 6 4 4 5 4 4 4 5 6 4 2 4 4 5 6 7 7 2 2 3 5 5 5 3 1 4 5 5 6 5 5 3 3 2 2 0 4 4 5 6 5 5 6 5 4 5 6 6 7 8 8 9 10
19 19 19 19 18 18 18 18 17 17 15 12 12 10 7 7 8 7 6 6 5 5 5 4 3 3 4 6 7 9 11 11 10 6 4 6 4 2 2 3 3 3 5 7 5 5 4 2 4 6 5 4 1 1 4 5 4 3 2 3 3 0 5 7 6 6 3 4 3 4 1 6 5 4 5 5 5 5 5 5 5 6 6 6 7 9 10 11
18 18 18 18 18 18 17 16 16 15 13 11 10 10 7 7 9 6 5 5 4 5 5 4 3 3 5 7 7 7 9 10 9 8 6 6 5 1 2 2 3 4 5 6 7 6 4 1 4 5 2 2 3 5 5 3 4 3 2 1 1 2 5 7 6 6 2 4 6 4 2 6 5 5 5 5 5 5 4 5 6 6 7 6 7 9 9 9
18 18 18 18 18 17 17 16 15 14 12 9 9 9 8 8 9 7 6 5 5 4 4 4 3 2 5 4 4 4 5 6 8 10 9 8 7 3 3 3 3 4 4 5 6 5 3 3 5 5 2 4 5 4 4 3 4 3 3 3 3 2 4 6 5 6 2 2 5 3 3 4 5 5 5 5 5 5 4 5 6 6 7 7 8 8 7 7
19 18 17 17 17 17 16 15 14 13 10 7 8 8 8 8 8 7 6 6 6 4 5 6 4 4 6 3 3 4 4 5 7 10 11 10 9 6 5 3 3 3 1 2 5 5 5 4 5 4 4 5 3 4 5 1 2 2 1 3 3 2 3 4 4 6 5 3 2 2 2 3 5 4 4 4 5 5 4 5 6 6 7 7 8 8 7 9
19 18 17 16 16 16 16 14 14 12 9 6 7 8 9 8 8 8 8 8 7 7 8 8 4 3 5 5 4 4 5 5 7 10 11 12 10 8 6 4 4 4 2 4 5 6 7 6 5 4 4 4 3 5 4 5 6 5 6 5 2 1 2 3 4 8 8 4 1 2 1 2 3 3 3 4 5 5 4 4 5 6 6 6 7 8 8 10
20 19 18 16 15 15 15 14 13 11 8 5 6 8 8 7 8 8 8 9 8 7 6 4 6 4 1 2 2 2 3 5 8 10 11 11 10 8 6 5 6 7 7 6 8 9 7 5 6 5 4 3 1 4 6 7 7 8 7 6 4 1 2 4 7 8 8 4 3 2 0 3 3 2 3 3 4 4 3 3 3 4 4 5 7 8 8 10
21 20 18 16 14 15 14 13 12 10 7 5 5 7 6 5 5 3 4 10 13 13 11 7 9 11 7 2 2 2 2 5 8 9 11 11 10 8 7 7 7 8 8 6 6 7 6 6 6 6 4 3 4 5 7 7 6 8 8 6 4 1 2 5 7 9 7 3 2 1 1 1 1 1 2 3 3 4 3 3 3 3 3 5 6 7 9 11
22 21 19 16 14 14 13 12 11 8 5 4 4 5 4 5 4 2 4 9 11 12 14 12 12 15 13 8 5 4 2 4 8 9 12 12 9 9 9 9 8 8 8 5 2 4 5 7 7 6 4 5 6 5 6 7 7 7 7 6 3 1 4 6 6 9 7 3 1 2 4 1 2 1 2 3 3 2 2 2 3 3 3 4 6 7 8 8
23 22 20 17 14 13 13 12 10 6 4 4 3 2 3 3 4 5 8 8 8 8 11 11 12 15 15 12 10 6 3 5 9 11 13 13 12 10 8 9 10 7 7 6 4 4 7 9 7 4 3 4 5 5 5 7 8 7 5 5 3 3 7 6 4 8 7 2 1 3 4 1 3 1 3 2 2 1 0 2 3 4 5 5 5 5 5 5
23 22 21 18 14 12 12 11 8 5 4 4 3 3 5 5 4 6 7 8 8 7 7 9 11 12 11 10 8 7 6 6 9 13 14 14 13 11 7 8 11 8 7 9 8 7 6 6 4 2 1 4 6 6 6 7 7 5 3 6 2 5 4 3 6 9 7 2 1 1 4 1 4 3 4 3 1 2 1 2 3 4 4 5 4 3 3 2
23 22 21 19 14 11 12 10 5 5 5 6 6 7 7 6 6 7 6 8 6 3 4 6 8 8 8 6 5 9 9 5 6 11 15 15 12 10 8 8 9 9 8 8 10 10 5 3 5 3 2 4 6 6 6 6 6 2 2 5 3 2 3 2 8 9 7 5 2 3 5 2 4 3 4 5 3 3 3 2 3 3 3 3 3 2 1 1
22 22 20 19 14 10 12 8 3 4 6 7 7 9 8 5 6 5 4 7 4 3 4 4 4 6 7 6 7 8 7 6 5 7 13 15 11 9 7 6 7 9 9 7 8 10 6 4 5 3 4 5 6 7 4 5 6 1 5 5 5 0 2 6 11 9 5 4 3 5 4 3 6 2 3 4 3 4 3 4 4 3 2 2 2 2 2 3
21 21 20 19 15 10 9 3 4 5 7 6 6 8 6 4 5 3 3 5 3 3 3 4 2 4 7 8 9 8 6 7 7 7 12 13 10 8 7 6 5 7 5 6 5 6 4 3 4 7 8 7 8 8 4 4 8 2 5 5 5 2 5 9 10 6 1 2 3 6 5 2 6 3 2 3 1 2 4 4 3 3 2 1 1 3 3 3
20 19 19 18 15 11 8 3 6 8 5 4 5 6 4 4 4 2 4 5 3 2 2 3 2 6 7 7 11 7 3 9 10 8 11 12 10 7 7 7 6 5 3 5 5 4 5 5 6 8 8 8 8 6 0 3 8 3 6 6 3 4 7 8 7 3 2 3 5 5 4 3 3 4 2 2 1 2 3 4 3 3 2 2 2 3 4 3
18 18 18 17 14 13 11 7 7 5 4 5 5 5 3 3 1 2 5 3 3 1 2 4 3 6 5 5 10 5 2 8 9 8 11 12 10 8 10 8 7 7 6 7 6 3 4 7 6 5 7 8 6 3 4 4 7 4 5 4 2 3 6 6 4 1 2 2 3 4 2 4 3 4 0 1 1 1 2 4 3 3 3 4 3 3 4 3
16 16 18 16 13 12 10 8 5 4 5 5 5 4 2 1 2 4 5 1 2 1 3 5 5 7 6 6 9 5 1 3 2 7 12 13 10 6 6 6 7 6 5 7 7 3 3 1 1 2 6 4 1 4 4 5 5 3 0 2 2 3 4 4 4 1 0 4 2 2 2 4 3 4 1 0 0 0 1 3 3 4 4 5 4 4 3 3
14 15 17 15 12 10 8 6 4 4 4 5 4 3 3 4 3 6 4 1 1 2 3 4 5 7 9 9 9 7 4 3 4 8 10 8 10 7 1 2 6 6 5 7 9 3 1 1 3 4 5 3 2 2 2 5 3 1 4 5 5 3 2 3 2 1 4 3 1 2 2 3 2 3 2 2 1 1 0 2 3 4 5 5 4 4 3 3
12 13 15 14 11 9 6 3 4 4 4 4 4 5 5 5 5 5 1 2 1 3 4 5 5 7 10 9 8 8 6 3 5 8 9 6 9 9 4 4 5 6 6 7 8 8 7 6 4 4 3 2 3 2 1 3 4 5 5 4 4 3 2 4 3 3 5 0 2 3 1 2 2 3 3 1 2 1 2 1 4 4 4 5 4 4 3 3
11 12 12 11 9 6 5 4 5 5 5 5 6 7 5 5 5 2 3 2 3 2 3 4 6 8 10 7 6 8 7 5 6 7 7 7 8 7 8 7 5 7 8 7 9 9 9 10 9 7 5 5 7 5 4 5 5 6 5 5 5 3 3 5 3 3 3 2 0 4 1 1 1 4 3 3 3 2 1 2 5 6 4 4 5 4 4 3
10 9 8 6 4 2 2 3 5 6 6 6 7 7 6 5 2 2 2 2 1 2 1 3 6 7 8 8 6 7 6 4 6 6 6 7 7 7 9 7 4 7 7 6 9 8 7 10 12 10 8 9 10 6 5 6 6 7 5 5 5 3 4 4 2 3 1 3 3 1 1 2 2 5 4 5 3 1 1 3 5 6 5 5 6 4 4 5
8 6 3 2 3 4 3 4 6 5 7 8 7 7 6 4 1 1 1 2 4 2 2 3 6 7 8 9 7 8 7 4 6 6 5 7 7 7 8 7 7 7 5 4 5 7 9 7 11 12 8 10 12 11 7 3 4 6 4 5 5 4 4 4 3 3 2 3 3 2 2 3 2 5 5 4 4 3 2 4 5 6 6 6 6 5 5 5
4 2 4 5 6 7 6 6 5 5 7 7 6 6 5 2 2 1 0 4 2 3 4 4 7 8 8 8 7 7 6 4 7 7 6 8 7 7 7 8 10 9 6 6 3 6 9 5 6 9 5 8 12 13 9 6 4 4 2 5 5 3 3 3 4 5 4 1 2 3 2 3 4 5 6 4 5 5 3 5 6 7 7 6 6 5 5 6
1 4 5 6 7 7 7 6 4 4 5 6 7 5 2 2 2 1 2 2 1 1 4 6 7 6 7 7 8 9 6 3 7 7 6 8 7 8 8 6 10 11 8 6 2 3 8 6 6 7 5 6 6 7 9 8 4 3 4 6 0 4 5 4 3 2 4 5 1 2 2 5 3 4 8 7 6 6 5 5 6 7 7 6 6 6 6 7
3 6 5 5 5 5 5 4 3 2 3 7 6 2 1 2 2 3 2 1 2 1 4 7 5 5 6 7 7 10 8 5 7 7 6 7 6 8 9 6 8 13 11 8 4 2 5 6 8 9 9 8 3 3 8 8 6 3 4 3 4 1 5 5 4 3 4 5 1 1 3 3 4 4 8 9 8 8 7 6 6 5 6 6 7 7 7 8
5 7 5 4 4 2 2 2 3 1 5 7 5 2 2 1 2 3 2 2 2 4 6 4 3 3 6 7 8 10 10 7 7 7 6 6 5 6 11 9 9 13 14 12 7 1 3 5 7 7 7 8 6 6 7 7 9 7 4 1 2 4 4 4 4 4 4 4 1 1 2 1 0 3 8 11 9 9 8 8 6 5 6 7 8 9 8 8
7 7 3 4 4 0 2 4 4 3 6 6 3 1 1 1 1 3 3 3 3 4 5 3 2 3 5 5 7 10 10 7 7 6 6 5 4 5 8 8 9 14 16 14 8 2 3 6 3 7 6 7 8 8 7 8 9 7 5 4 5 5 3 1 3 3 4 4 1 1 1 1 4 3 7 11 10 10 9 9 6 6 8 8 9 9 8 8
7 6 3 4 5 2 4 5 3 5 5 3 2 1 1 2 2 3 3 3 5 4 3 1 2 4 5 4 5 7 9 8 6 5 5 5 5 5 8 8 8 12 15 14 9 4 4 5 3 7 8 6 8 9 8 7 8 8 7 7 6 4 2 2 3 2 4 5 2 2 2 3 5 2 6 10 10 9 9 10 6 6 9 9 10 10 9 8
7 5 1 2 5 2 4 5 3 4 3 1 1 1 2 4 5 3 2 3 6 5 4 4 2 3 5 5 5 6 7 7 7 6 4 6 6 5 7 10 9 10 11 10 9 7 5 5 4 5 7 9 9 7 4 5 5 6 8 8 7 6 4 4 4 3 3 4 3 4 3 4 5 2 4 8 10 9 10 11 8 7 9 9 10 11 9 8
5 3 1 1 3 2 5 5 2 2 3 0 2 3 3 5 5 3 2 1 5 4 4 4 3 2 4 5 4 4 6 6 6 7 5 6 8 4 6 9 10 12 10 9 10 9 5 4 5 4 6 6 5 3 2 5 6 6 6 7 7 6 6 6 4 2 3 3 3 4 2 3 5 1 2 7 11 10 11 11 9 9 10 9 10 11 9 7
2 2 1 1 1 2 5 5 2 2 2 2 4 4 3 3 4 3 2 0 2 3 3 3 2 2 2 2 3 4 6 6 6 8 7 6 7 3 6 8 9 12 11 8 9 9 4 4 5 5 5 2 5 3 1 1 4 7 7 7 7 7 7 6 4 3 3 3 3 4 2 3 5 3 3 8 12 11 11 10 9 10 10 9 11 10 8 6
4 2 2 2 2 2 5 3 0 1 1 3 3 0 1 2 3 4 4 3 3 1 2 0 0 0 1 0 2 2 3 4 5 6 5 4 3 1 3 9 10 10 10 7 8 10 6 5 6 6 6 6 6 6 6 5 5 7 8 8 10 10 8 6 3 3 4 3 4 5 1 4 6 5 6 9 11 11 11 10 8 10 10 10 10 9 7 6
3 1 0 2 3 2 3 3 4 3 3 3 3 3 2 2 0 4 5 4 5 3 2 2 1 1 1 1 1 1 1 3 2 2 3 4 2 3 2 9 12 12 9 6 8 11 8 6 6 7 8 9 9 7 6 6 7 7 8 9 10 12 11 7 5 6 5 1 4 6 1 6 7 8 10 11 10 10 11 11 9 9 10 10 10 8 6 6
3 1 2 2 1 1 2 4 5 4 4 5 2 4 6 2 2 2 3 2 5 5 4 3 1 1 0 1 2 2 2 2 1 0 0 2 1 3 3 6 12 11 6 5 9 10 5 5 7 8 8 6 4 0 2 2 7 9 10 11 12 13 13 10 7 6 2 1 4 3 3 8 11 12 11 12 11 9 10 11 11 10 10 10 9 7 6 5
4 2 2 1 1 1 2 3 6 4 4 5 3 3 7 5 3 2 2 3 5 5 3 3 4 2 3 3 1 2 3 3 1 2 2 3 2 4 4 4 11 10 5 7 12 10 4 7 9 9 9 6 4 3 2 2 7 9 9 11 13 13 13 12 9 3 1 3 5 2 6 9 12 13 13 12 11 9 10 10 10 10 10 10 9 7 6 5
3 2 3 3 1 1 0 3 7 6 4 5 3 4 6 7 6 5 3 4 5 5 3 3 6 7 6 5 3 2 2 3 3 5 4 5 4 3 4 3 8 11 8 10 12 8 5 7 8 8 10 7 4 3 3 4 6 7 7 9 12 13 13 14 10 4 5 6 2 4 9 8 10 12 12 12 11 9 10 12 11 11 11 10 8 7 6 6
5 3 3 3 2 3 4 5 7 6 4 4 3 4 7 8 8 7 5 4 3 7 7 3 6 8 6 5 5 4 5 3 3 6 6 7 7 2 2 4 7 11 11 10 9 6 5 4 6 7 9 6 4 4 5 6 6 6 7 8 10 11 12 11 7 5 7 4 2 5 10 7 9 10 11 14 14 12 12 13 11 11 11 10 8 8 7 7
5 4 5 5 3 2 4 5 6 4 2 2 2 4 6 7 9 9 6 4 3 7 9 7 9 9 5 4 4 5 7 7 5 6 8 8 6 4 3 3 4 9 10 8 7 6 5 3 5 6 7 6 4 4 6 8 8 7 6 6 7 9 9 8 6 5 5 3 1 7 10 8 8 11 14 16 16 15 13 12 11 11 11 10 9 9 9 9
4 3 5 6 3 1 3 3 4 4 1 2 3 5 6 6 11 11 5 2 4 6 8 10 11 9 3 2 4 6 8 9 8 10 12 10 7 6 4 2 0 6 9 8 7 7 6 4 4 6 7 5 4 5 8 9 9 9 7 5 5 7 6 5 4 4 3 4 6 8 9 7 7 12 16 15 15 15 13 12 12 11 11 10 10 10 10 10
5 3 3 5 3 1 2 2 2 3 1 3 4 6 6 6 10 11 4 1 3 5 8 11 11 8 3 3 6 9 13 15 14 14 14 12 11 11 9 7 6 4 6 7 6 7 7 5 4 6 7 4 4 5 7 8 10 8 4 2 2 4 3 2 3 3 2 4 5 4 5 9 11 13 15 14 14 14 13 12 12 12 12 11 10 11 10 9
Wind_Direction
8 5 3 0 357 354 352 350 348 347 344 338 332 327 324 324 328 329 328 323 313 305 301 299 294 290 290 290 290 290 289 289 286 281 282 297 302 275 278 291 287 296 293 265 281 248 198 173 184 192 185 207 236 251 272 271 285 280 293 34 37 33 39 26 43 96 134 136 140 150 165 170 140 133 143 140 125 127 117 93 100 87 86 104 119 132 141 146
3 2 0 358 355 352 350 347 347 346 343 339 331 326 322 321 324 325 326 322 314 305 300 299 294 290 289 288 290 292 294 292 287 285 281 275 275 270 267 274 281 285 248 271 277 194 172 179 192 192 197 222 223 258 304 307 294 309 353 45 45 36 45 40 64 107 132 134 142 146 158 164 126 127 159 163 139 144 127 110 124 112 104 118 128 138 145 149
359 359 357 355 353 350 348 346 345 344 342 339 331 325 321 320 320 321 322 320 315 305 299 300 295 291 288 287 291 294 301 300 291 285 280 264 249 255 261 268 270 237 193 168 191 184 190 201 196 186 219 250 27 286 328 27 324 345 350 43 54 50 59 53 70 103 123 131 142 142 152 152 125 135 172 169 145 152 124 112 141 134 129 136 140 148 148 151
356 356 355 353 351 349 347 345 343 342 341 338 332 325 322 319 318 318 318 317 314 304 299 300 296 292 288 288 289 297 313 301 267 228 264 256 236 242 251 267 265 227 190 187 195 206 230 198 184 194 250 273 81 216 51 48 335 10 12 45 55 65 71 57 74 104 121 131 135 137 154 154 142 156 165 173 157 144 129 122 148 149 147 149 150 155 155 157
353 353 353 351 349 347 345 343 342 341 340 337 331 326 324 320 316 315 314 315 312 302 299 300 298 293 288 287 286 298 302 272 163 199 250 232 223 228 235 252 256 224 200 212 226 239 188 163 188 216 263 308 48 240 69 57 304 33 49 54 52 68 80 73 86 107 121 128 131 137 151 142 148 165 163 192 202 89 133 159 159 160 160 156 155 158 161 164
349 350 350 349 347 345 344 342 340 339 338 335 329 327 326 321 315 313 312 312 308 300 296 299 299 293 289 286 282 277 269 272 67 282 220 199 211 212 220 233 243 225 204 222 222 194 164 181 212 273 301 325 24 23 71 75 317 34 68 62 57 72 89 97 100 108 120 126 128 132 135 136 155 166 163 202 216 77 101 176 172 169 168 163 160 161 165 169
346 347 347 347 345 344 342 340 339 338 337 333 329 329 328 323 315 310 310 310 305 296 293 299 297 291 289 284 284 269 260 301 4 319 150 172 194 202 211 218 233 224 199 206 199 189 190 209 260 324 323 4 28 27 80 113 60 39 75 75 69 81 93 107 112 114 120 121 113 120 145 160 182 154 158 212 204 132 69 191 185 173 170 170 167 169 174 173
343 343 343 344 343 343 340 338 338 337 336 332 329 329 330 325 314 308 309 307 300 292 292 298 295 291 286 281 290 272 247 254 264 316 63 142 151 184 198 211 231 224 201 200 205 214 219 247 315 329 336 28 13 16 105 159 115 55 79 92 87 91 98 111 119 125 127 119 121 149 158 170 196 203 217 227 206 180 179 191 182 172 171 176 176 178 182 182
339 339 340 341 340 340 338 337 337 336 336 332 329 331 332 325 313 310 309 306 298 292 295 296 293 288 280 279 287 264 231 229 239 265 201 149 122 147 169 207 235 223 211 209 223 229 243 297 350 340 333 3 357 31 127 239 77 74 92 105 105 102 107 118 123 129 131 126 153 177 161 153 182 239 240 159 153 166 173 180 176 172 176 181 182 184 187 191
337 336 336 337 338 337 336 335 335 336 336 331 330 332 331 326 320 317 311 308 301 296 298 294 294 285 274 275 253 239 217 228 236 225 196 169 123 130 142 188 232 223 218 225 238 228 256 317 348 331 308 322 351 49 63 341 81 101 106 106 112 113 116 124 120 126 128 126 191 228 160 127 173 234 130 109 134 152 158 170 175 177 180 183 184 187 193 199
336 335 335 336 336 335 334 334 334 336 335 332 332 333 332 333 337 330 318 311 304 300 299 295 294 280 272 258 239 239 223 220 214 176 179 172 139 128 130 161 189 210 216 237 255 237 249 290 324 316 307 328 337 96 68 61 112 118 112 109 117 122 125 129 119 125 132 122 166 287 281 188 198 222 82 101 136 151 156 160 171 182 181 184 185 186 195 206
337 336 335 336 335 334 332 332 334 335 335 333 331 335 331 332 340 335 329 318 306 302 300 298 290 279 281 259 244 246 227 202 196 178 166 168 159 134 131 150 164 179 200 236 277 261 249 257 291 308 327 330 319 125 89 127 145 134 140 122 127 149 140 136 130 125 126 98 111 302 272 182 177 120 88 107 129 136 147 150 162 174 177 185 186 188 198 208
337 336 336 337 336 334 332 331 333 334 334 332 332 334 323 321 328 327 330 323 309 305 305 302 290 292 284 258 251 244 220 199 196 192 169 170 176 149 140 140 147 158 182 217 264 264 233 241 269 300 319 318 340 56 98 153 176 165 196 245 153 170 140 136 139 138 147 87 98 278 102 104 100 97 95 106 128 133 133 140 153 158 165 179 186 196 204 208
334 335 336 338 337 335 333 330 331 332 333 331 331 329 318 320 321 316 316 311 308 303 305 304 295 310 284 263 265 246 216 204 203 201 191 182 183 178 161 148 141 144 166 194 218 221 215 225 263 273 283 297 358 157 172 170 200 199 211 235 212 134 110 141 149 156 168 115 145 264 22 83 79 99 112 116 133 137 130 136 145 147 157 175 189 201 208 212
330 332 334 337 338 336 333 330 329 329 330 330 329 326 317 316 321 314 292 295 300 293 301 304 304 320 282 265 263 250 219 213 216 211 212 194 184 218 221 180 142 149 163 182 195 202 206 216 262 268 249 233 220 204 198 182 204 236 269 215 173 41 112 140 153 167 180 124 166 256 2 92 85 83 117 136 138 141 135 131 139 149 164 179 194 207 213 211
328 329 332 336 337 336 333 329 327 327 327 328 327 323 316 314 320 307 278 275 276 283 306 302 305 304 277 261 237 242 213 209 219 214 213 198 184 187 191 165 143 162 164 185 197 193 197 219 254 271 250 222 224 233 242 213 183 201 287 5 39 43 110 124 161 176 178 143 170 245 342 84 95 94 125 151 151 151 146 136 147 157 172 188 201 214 210 202
328 327 330 334 336 335 332 328 326 326 323 325 328 325 318 312 311 299 272 255 256 277 298 290 308 297 265 238 201 198 175 187 202 208 212 203 192 187 181 166 161 164 131 199 206 201 208 223 235 235 232 237 254 268 264 280 61 85 327 6 61 36 74 133 182 171 180 210 164 192 310 54 87 101 126 160 166 163 163 157 164 171 182 193 210 223 208 212
330 329 329 332 336 335 331 327 325 324 320 320 326 326 322 313 307 294 264 253 261 277 285 271 259 270 229 203 206 180 174 195 192 199 209 205 199 194 193 192 181 180 195 204 197 203 207 213 238 246 229 226 242 263 292 15 5 353 350 351 53 98 107 139 144 147 172 210 169 170 206 88 102 89 98 152 172 175 179 174 175 182 189 190 210 234 223 225
333 332 330 330 333 334 331 326 324 321 314 311 323 329 327 316 303 286 260 257 256 260 281 232 215 263 295 185 239 218 213 210 192 197 205 206 203 197 199 202 199 202 208 198 184 197 215 218 233 249 235 218 246 294 327 357 344 334 335 330 331 357 102 92 103 136 162 182 181 190 105 101 123 99 85 129 167 181 183 185 195 192 199 204 211 233 238 241
334 333 331 329 331 334 329 324 322 315 304 299 324 330 321 311 289 250 258 260 250 256 277 268 248 272 292 284 287 282 250 209 196 197 201 203 198 193 197 198 200 211 221 219 179 185 228 243 234 245 262 322 328 313 318 323 320 313 307 311 317 310 110 107 120 142 165 190 165 162 292 125 117 84 81 109 157 182 190 202 225 215 219 235 237 241 247 254
332 332 333 329 328 333 327 323 318 304 291 284 315 328 320 330 311 335 333 275 249 254 266 266 258 260 261 258 266 292 303 212 195 189 197 197 190 192 190 194 207 211 210 213 178 170 227 248 246 256 288 328 319 309 310 306 299 292 299 311 294 180 97 98 121 142 164 226 126 163 255 210 114 45 96 134 171 183 198 218 252 265 260 262 262 261 260 259
328 330 332 328 327 332 326 323 313 285 273 277 291 312 296 316 306 323 329 290 265 260 257 255 253 255 255 253 254 256 265 224 193 184 195 190 191 202 185 193 221 214 182 186 207 201 222 244 245 249 305 302 286 291 293 292 289 284 289 295 294 113 104 98 128 149 159 226 121 179 257 120 107 93 110 155 185 145 179 249 270 283 288 285 276 276 273 257
324 326 329 327 326 329 325 321 304 259 254 280 255 236 266 276 298 326 319 288 278 263 248 242 242 252 255 251 249 225 215 225 194 180 187 186 194 211 200 203 223 219 190 194 216 222 224 240 222 174 265 275 268 269 276 280 272 271 290 297 343 130 158 132 157 164 163 223 0 239 257 139 126 148 131 138 143 135 172 220 265 279 285 292 302 315 305 269
321 323 325 324 323 329 327 317 287 233 254 281 247 236 260 278 313 336 309 278 273 242 237 233 234 246 241 230 212 203 206 219 194 173 179 188 191 199 211 220 223 224 214 209 222 236 249 69 90 121 206 264 277 266 269 290 277 268 28 322 352 144 259 54 136 159 168 200 241 257 250 166 140 164 137 133 150 165 184 205 226 252 267 287 310 335 16 37
319 320 322 321 320 328 329 318 242 228 279 285 254 241 253 284 316 333 296 268 238 176 210 208 228 235 215 201 184 190 208 212 203 170 173 190 190 181 201 219 227 228 212 201 222 243 252 117 127 237 259 254 276 277 284 317 296 310 72 356 341 249 209 118 139 165 181 183 219 257 268 115 118 119 113 128 156 165 178 219 209 201 225 261 317 15 71 83
317 319 319 317 317 325 338 326 220 282 304 282 250 234 241 291 310 312 284 260 184 136 174 168 188 177 169 183 171 173 210 189 172 164 168 185 193 191 198 186 218 247 206 188 227 251 243 157 184 252 269 264 270 271 272 310 290 291 60 358 325 207 174 150 158 193 185 97 210 250 289 52 100 77 83 117 135 151 174 218 206 180 192 194 20 53 72 80
317 318 315 314 315 320 333 294 265 298 301 253 233 221 239 297 301 278 262 234 157 100 153 135 139 148 144 169 170 179 199 140 141 161 170 176 177 194 213 185 200 233 184 194 226 232 215 204 215 235 252 258 260 260 201 303 290 339 27 332 286 197 181 171 187 236 46 99 195 214 280 301 88 62 31 101 137 180 185 208 194 180 165 104 66 75 82 81
317 317 311 309 310 314 318 300 286 283 244 221 208 213 253 289 256 240 259 230 111 90 141 111 138 157 142 165 182 208 68 131 157 160 164 178 169 188 220 212 214 204 178 215 220 160 184 208 206 218 239 241 252 326 28 307 290 5 11 308 257 206 189 187 220 248 62 261 216 153 246 277 86 85 276 143 184 212 194 203 186 166 135 104 92 88 91 93
318 316 308 303 305 310 309 300 286 242 207 186 192 217 242 221 193 235 257 271 104 180 132 117 145 161 161 168 187 215 147 151 184 131 156 183 177 191 233 214 222 208 178 232 238 136 111 191 356 290 259 248 4 21 5 291 301 40 59 226 171 188 185 206 242 116 152 267 290 91 244 285 61 89 138 134 70 22 168 184 159 138 120 108 105 104 107 105
320 314 303 300 309 311 307 298 262 207 174 174 191 192 178 184 218 237 228 110 128 143 121 146 153 161 174 172 180 203 195 147 90 133 158 177 181 194 258 160 213 230 202 225 245 242 180 302 321 276 267 314 13 30 352 281 285 158 192 176 145 152 178 229 240 306 256 242 21 13 276 295 2 86 66 25 30 355 327 143 127 126 122 117 118 111 105 99
320 307 296 302 314 313 311 285 221 191 176 190 175 164 180 195 239 255 173 99 184 133 151 177 155 166 185 186 181 184 195 168 134 166 172 163 184 194 193 179 200 230 222 217 231 231 224 229 237 224 230 289 256 207 159 225 217 216 223 198 169 148 189 232 188 212 259 272 37 323 307 293 315 76 82 81 138 230 279 106 103 105 112 120 122 108 96 90
314 298 296 306 312 305 295 247 219 204 188 185 169 178 208 218 227 263 87 152 211 141 161 171 155 180 192 199 194 175 186 187 164 192 198 185 193 192 200 207 192 208 224 223 216 213 218 223 222 212 207 232 243 216 174 188 208 226 234 226 228 203 204 232 205 210 252 92 210 283 313 238 7 81 119 154 147 183 257 21 70 94 123 132 120 108 99 90
308 299 305 313 317 303 264 204 191 189 180 174 180 198 237 247 214 59 88 170 121 72 84 153 162 183 190 197 194 172 186 185 167 196 209 202 210 196 201 220 223 226 235 223 210 209 214 210 210 218 214 213 231 234 198 187 201 218 225 230 245 255 240 243 238 238 225 111 161 246 291 242 129 115 156 149 131 187 153 56 66 92 115 119 113 111 101 90
307 315 351 54 75 83 107 140 151 166 166 170 193 216 243 254 115 81 203 98 71 102 124 154 168 175 197 205 184 175 200 194 172 194 195 199 220 208 197 206 219 238 249 230 221 219 222 209 197 207 204 189 209 236 253 256 212 214 240 262 266 286 280 278 289 305 21 100 134 154 230 292 68 128 145 132 146 197 144 92 89 96 102 108 111 109 101 98
314 30 89 102 94 89 95 113 127 140 155 178 217 235 245 258 102 156 170 78 83 155 138 163 185 180 193 201 178 185 225 208 177 200 206 202 215 215 207 199 198 219 233 221 218 219 235 247 178 180 173 179 203 224 246 274 241 192 226 255 259 302 306 304 307 327 335 282 158 180 211 36 54 131 140 153 178 184 160 120 118 115 111 113 114 109 105 102
12 110 113 111 105 96 90 94 105 121 160 213 238 236 253 7 36 10 38 48 323 145 148 173 191 191 178 179 182 188 218 225 182 198 212 209 221 221 220 202 187 203 218 216 203 207 236 242 164 164 183 191 209 220 217 241 247 165 211 231 191 357 305 284 257 246 281 269 164 211 224 100 113 162 151 171 187 182 179 138 119 116 114 113 110 109 108 102
138 134 132 128 124 112 95 81 65 112 205 240 252 269 348 30 20 4 22 330 300 230 204 186 184 209 178 169 186 182 188 204 192 202 200 198 220 218 214 210 190 200 214 231 243 218 252 238 169 183 206 177 169 242 211 230 252 218 221 204 110 31 266 269 269 222 245 260 155 236 268 152 176 178 155 176 190 190 176 127 112 125 124 120 112 109 106 103
152 150 149 167 160 118 79 23 4 275 232 242 246 274 314 40 42 356 338 301 270 223 231 213 177 223 192 177 182 175 181 184 179 199 202 184 187 194 204 208 195 200 211 227 235 155 261 248 162 172 200 157 161 225 204 201 232 253 305 310 202 248 228 207 254 265 260 268 180 193 267 254 198 122 160 184 189 186 164 129 137 152 133 124 117 116 111 106
155 163 175 208 213 244 345 347 348 260 235 239 226 188 308 346 12 325 300 278 251 222 231 232 171 216 211 185 167 165 184 193 176 191 209 194 168 172 200 205 192 198 206 215 225 191 229 251 180 151 162 152 169 213 210 182 199 238 275 247 231 273 303 230 257 284 284 285 296 221 225 68 55 90 180 189 179 178 158 130 144 152 134 127 118 115 113 109
167 185 190 219 241 282 336 336 311 243 234 241 266 45 16 323 326 316 299 255 238 231 242 255 167 188 192 179 170 172 192 211 205 202 201 185 178 176 188 201 196 193 199 208 218 210 201 240 225 140 144 175 190 202 222 209 188 200 220 216 207 220 265 267 254 276 286 285 291 283 284 86 87 124 200 181 165 174 151 124 138 152 130 122 115 112 112 111
181 209 165 222 252 291 323 302 259 241 245 214 264 335 350 324 321 325 326 244 238 245 270 286 264 189 178 183 195 185 194 216 216 219 207 185 210 210 179 197 201 176 180 202 210 206 205 231 238 163 166 199 195 183 244 275 246 214 211 215 218 213 222 238 223 203 258 282 298 297 316 84 106 148 206 163 157 168 144 123 143 155 128 117 115 111 109 108
192 227 90 216 249 330 302 274 219 246 261 255 323 309 314 315 309 319 6 225 232 235 243 257 269 232 197 208 220 193 205 225 214 221 226 200 219 219 154 183 198 176 177 201 201 199 213 242 247 221 204 191 150 117 334 312 299 274 241 236 236 225 228 241 241 211 220 245 283 281 292 86 108 137 210 153 150 156 142 134 150 145 123 120 118 110 107 106
291 326 43 233 186 11 289 253 178 209 236 7 332 282 266 286 297 317 353 302 227 218 218 222 223 219 194 225 258 214 214 233 225 229 240 226 230 214 138 164 187 187 192 201 190 179 192 237 235 236 235 178 108 111 143 248 260 252 234 233 241 236 236 247 270 291 249 218 245 265 256 111 119 137 158 145 146 151 144 139 138 123 118 124 115 107 109 107
342 356 352 334 42 351 290 279 220 230 49 356 319 271 200 253 303 329 341 11 13 270 238 168 145 271 58 286 278 225 213 233 222 226 251 251 229 74 149 181 187 194 199 197 178 167 178 217 218 221 215 191 177 178 171 175 212 234 228 218 226 233 236 244 253 264 256 248 279 289 317 105 121 138 149 146 147 149 136 125 118 115 123 124 109 107 112 106
328 277 193 4 32 357 324 3 346 326 1 331 308 24 14 206 152 344 330 355 9 344 327 35 22 329 34 204 230 119 195 244 233 208 253 255 181 104 180 201 201 207 205 196 179 175 186 204 205 221 212 196 203 204 195 200 203 218 230 219 217 223 223 224 226 232 238 280 292 288 14 116 132 141 151 155 153 144 128 125 127 121 119 112 104 109 111 102
313 284 151 151 85 38 60 38 345 320 347 336 324 10 357 16 105 347 320 354 19 8 7 38 7 283 27 219 203 117 126 210 257 168 198 290 218 128 116 197 211 213 186 170 190 189 203 214 211 240 245 223 229 171 63 261 221 217 223 215 213 218 218 221 232 237 242 337 280 283 102 138 153 152 157 159 153 143 133 134 133 120 112 108 105 108 106 101
310 338 12 320 158 147 139 65 8 349 346 335 331 353 352 5 28 8 8 11 8 358 358 61 56 23 18 356 251 108 95 151 158 16 29 357 335 148 125 188 212 206 164 186 204 200 216 222 213 237 253 260 307 7 47 272 241 234 234 223 215 214 213 220 231 233 174 247 250 168 148 167 159 153 160 158 150 146 138 130 124 117 114 112 112 112 107 97
350 38 19 353 344 316 110 32 1 346 340 336 337 349 355 12 21 21 7 333 347 0 349 91 65 40 28 5 323 11 50 147 101 32 21 2 349 160 135 140 184 188 189 199 201 202 225 217 203 224 239 244 278 275 241 245 243 242 245 234 220 214 214 220 223 208 215 248 272 158 181 175 142 149 158 147 139 134 124 121 122 120 116 114 115 113 102 90
15 37 34 0 340 342 344 340 325 315 330 342 351 10 5 10 19 16 347 312 347 19 10 37 42 24 27 11 349 26 35 19 27 20 6 354 344 326 122 107 156 179 194 195 189 208 241 210 186 223 236 229 232 233 223 229 228 224 234 234 224 218 217 220 216 196 209 250 344 171 177 138 120 149 149 131 128 125 118 118 120 119 116 116 114 107 94 84
25 15 359 327 299 316 326 320 306 288 312 344 357 15 2 5 13 2 338 319 343 12 11 12 6 357 6 21 17 53 44 6 337 329 329 333 337 351 39 60 141 176 195 197 182 198 229 194 177 219 227 203 194 208 207 212 210 203 208 216 216 213 212 212 205 190 201 222 176 174 161 116 103 125 124 121 124 124 122 119 117 117 117 116 111 102 91 83
29 3 343 318 301 339 318 314 307 281 286 21 10 7 358 5 4 347 324 326 340 352 3 357 347 336 326 52 49 39 10 338 307 298 301 298 295 308 329 349 157 182 192 195 183 191 213 198 173 217 224 189 167 194 195 193 197 193 179 169 193 207 206 202 191 192 204 174 163 175 165 136 118 120 121 125 126 125 125 122 118 115 112 112 109 102 94 88
28 9 346 311 285 329 315 292 280 271 289 44 17 358 342 342 349 342 336 67 11 2 0 344 334 323 313 66 36 353 330 313 300 295 290 277 271 275 274 271 271 240 201 197 193 195 211 213 189 210 220 189 169 193 188 188 197 192 155 117 200 201 190 177 153 150 178 163 167 182 147 131 133 134 134 138 134 127 124 125 122 116 112 110 106 101 97 97